x

Central Caribbean - 210 Nm Sse Of Kingston, Jamaica (42058) Weather Station

10:20 - Thu 20th Jul 2017 All times are EST. -5 hours from GMT.

  • Wind
    29mph, 36mph gusts
  • Sea Temp 84°f
  • Sea Pressure 1015.1mb
  • Central Caribbean - 210 Nm Sse Of Kingston, Jamaica
  • Central Caribbean - 210 Nm Sse Of Kingston, Jamaica

More Historic Weather Station data

Upgrade to MSW Pro to gain access to the past 30 days of data for over 8000 Wavebouys and Weather Stations around the globe.

Join Pro

Comparision Forecast

View Surf forecast
   
jeu. 07/20 10:20  -   -   -  29 36 mph 1015.1mb 84f
10:10  -   -   -  27 36 mph 1015.3mb 84f
10:00  -   -   -  27 34 mph 1015.3mb 84f
9:50 11ft 9s 6s 27 36 mph 1015.3mb 84f
9:40  -   -   -  27 34 mph 1015.3mb 84f
9:30  -   -   -  27 34 mph 1015.4mb 84f
9:20  -   -   -  27 34 mph 1015.1mb 84f
9:10  -   -   -  27 34 mph 1015.1mb 84f
9:00  -   -   -  25 31 mph 1015.3mb 84f
8:50 11ft 9s 7s 27 36 mph 1015mb 83f
8:40 11ft  -  7s 27 34 mph 1015mb 83f
8:30  -   -   -  27 31 mph 1014.9mb 83f
8:20  -   -   -  25 31 mph 1014.6mb 83f
8:10  -   -   -  27 36 mph 1014.5mb 83f
8:00  -   -   -  29 34 mph 1014.4mb 83f
7:50 11ft 9s 7s 27 34 mph 1014.3mb 83f
7:40 11ft  -  7s 27 34 mph 1014.1mb 83f
7:30  -   -   -  27 34 mph 1014.1mb 83f
7:20  -   -   -  27 36 mph 1014mb 83f
7:10  -   -   -  27 34 mph 1014mb 83f
7:00  -   -   -  27 36 mph 1013.8mb 83f
6:50 11ft 9s 7s 25 31 mph 1013.6mb 83f
6:40 11ft  -  7s 27 31 mph 1013.5mb 83f
6:30  -   -   -  27 34 mph 1013.4mb 83f
6:20  -   -   -  27 36 mph 1013.3mb 83f
6:10  -   -   -  27 34 mph 1013.1mb 83f
6:00  -   -   -  25 34 mph 1013mb 84f
5:50 9ft 8s 6s 27 34 mph 1013mb 83f
5:40 9ft  -  6s 27 34 mph 1012.9mb 83f
5:30  -   -   -  25 31 mph 1012.9mb 83f
5:20  -   -   -  25 31 mph 1012.9mb 83f
5:10  -   -   -  25 31 mph 1012.8mb 83f
5:00  -   -   -  25 31 mph 1012.5mb 84f
4:50 10ft 8s 6s 27 34 mph 1012.5mb 84f
4:40 10ft  -  6s 25 34 mph 1012.5mb 83f
4:30  -   -   -  25 31 mph 1012.5mb 84f
4:20  -   -   -  27 36 mph 1012.5mb 83f
4:10  -   -   -  27 34 mph 1012.4mb 84f
4:00  -   -   -  27 34 mph 1012.4mb 84f
3:50 9ft 8s 6s 27 34 mph 1012.4mb 84f
3:40  -   -   -  25 34 mph 1012.5mb 84f
3:30  -   -   -  25 34 mph 1012.5mb 84f
3:20  -   -   -  25 31 mph 1012.5mb 84f
3:10  -   -   -  22 29 mph 1012.5mb 84f
3:00  -   -   -  25 31 mph 1012.5mb 84f
2:50 8.5ft 8s 6s 22 29 mph 1012.5mb 84f
2:40  -   -   -  25 29 mph 1012.5mb 84f
2:30  -   -   -  25 31 mph 1012.5mb 84f
2:20  -   -   -  25 31 mph 1012.5mb 84f
2:10  -   -   -  25 31 mph 1012.5mb 84f
2:00  -   -   -  27 31 mph 1012.5mb 84f
1:50 8.5ft 8s 6s 25 31 mph 1012.4mb 84f
1:40 8.5ft  -  6s 25 31 mph 1012.5mb 84f
1:30  -   -   -  25 31 mph 1012.6mb 84f
1:20  -   -   -  22 29 mph 1012.6mb 84f
1:10  -   -   -  22 31 mph 1012.6mb 84f
1:00  -   -   -  25 31 mph 1012.8mb 84f
12:50 9.5ft 8s 6s 25 31 mph 1012.9mb 84f
12:40  -   -   -  25 31 mph 1013mb 84f
12:30  -   -   -  22 29 mph 1013.1mb 84f
12:20  -   -   -  25 31 mph 1013.1mb 84f
12:10  -   -   -  27 31 mph 1013.4mb 84f
12:00  -   -   -  25 29 mph 1013.5mb 84f
mer. 07/19 11:50 9ft 8s 6s 25 31 mph 1013.5mb 84f
11:40 9ft  -  6s 27 31 mph 1013.6mb 84f
11:30  -   -   -  25 31 mph 1013.5mb 84f
11:20  -   -   -  25 31 mph 1013.5mb 84f
11:10  -   -   -  27 34 mph 1013.9mb 84f
11:00  -   -   -  25 34 mph 1014mb 84f
10:50 8ft 8s 6s 22 31 mph 1014mb 84f
10:40  -   -   -  25 29 mph 1014mb 84f
10:30  -   -   -  25 29 mph 1014.1mb 84f
10:20  -   -   -  22 29 mph 1014mb 84f
10:10  -   -   -  25 29 mph 1014.1mb 84f
10:00  -   -   -  22 31 mph 1014mb 84f
9:50 8ft  -  6s 25 31 mph 1014.3mb 84f
9:40 8ft 8s 6s  -  mph - -
9:30  -   -   -  25 31 mph 1014.4mb 84f
9:20  -   -   -  22 27 mph 1014.1mb 84f
9:10  -   -   -  25 31 mph 1014mb 84f
9:00  -   -   -  25 31 mph 1014mb 84f
8:50 8ft 8s 6s 25 29 mph 1013.9mb 84f
8:40 8ft  -  6s 22 29 mph 1013.9mb 84f
8:30  -   -   -  25 31 mph 1013.9mb 84f
8:20  -   -   -  27 34 mph 1014mb 84f
8:10  -   -   -  25 29 mph 1013.8mb 84f
8:00  -   -   -  25 34 mph 1013.8mb 84f
7:50 8ft 8s 5s 27 34 mph 1013.5mb 84f
7:40 8ft  -  5s 29 34 mph 1013.5mb 84f
7:30  -   -   -  27 34 mph 1013.5mb 84f
7:20  -   -   -  27 36 mph 1013.4mb 84f
7:10  -   -   -  27 34 mph 1013mb 84f
7:00  -   -   -  25 34 mph 1013mb 84f
6:50 8ft 8s 6s 25 29 mph 1012.9mb 84f
6:40 8ft  -  6s 25 29 mph 1012.9mb 84f
6:30  -   -   -  25 34 mph 1012.8mb 84f
6:20  -   -   -  22 27 mph 1012.6mb 84f
6:10  -   -   -  20 25 mph 1012.8mb 84f
6:00  -   -   -  20 27 mph 1012.8mb 84f
5:50 8ft 8s 6s 20 27 mph 1012.8mb 84f
5:40  -   -   -  20 27 mph 1012.5mb 84f
5:30  -   -   -  22 27 mph 1012.5mb -
5:20  -   -   -  22 27 mph 1012.5mb 84f
5:10  -   -   -  25 29 mph 1012.3mb 84f
5:00  -   -   -  25 31 mph 1012mb 84f
4:50 7ft  -  5s 25 29 mph - 84f
4:40 7ft  -  5s 22 29 mph 1011.5mb 84f
4:30  -   -   -  22 27 mph 1011.6mb 84f
4:20  -   -   -  22 29 mph 1011.9mb 84f
4:10  -   -   -  27 31 mph 1012mb 84f
4:00  -   -   -  25 29 mph 1012mb 84f
3:50 7ft 8s 6s 25 31 mph 1012mb 84f
3:40 7ft  -  6s 22 29 mph 1012.1mb 84f
3:30  -   -   -  22 29 mph 1012.1mb 84f
3:20  -   -   -  20 27 mph 1012.4mb 84f
3:10  -   -   -  25 29 mph 1012.4mb 84f
3:00  -   -   -  25 31 mph 1012.5mb 84f
2:50 8ft 8s 6s 22 27 mph 1012.5mb 84f
2:40  -   -   -  22 29 mph 1012.5mb 84f
2:30  -   -   -  22 29 mph 1012.5mb 84f
2:20  -   -   -  25 31 mph 1012.5mb 84f
2:10  -   -   -  20 27 mph 1012.5mb 84f
2:00  -   -   -  22 27 mph 1012.5mb 84f
1:50 8ft 8s 6s 22 29 mph 1012.5mb 84f
1:40  -   -   -  22 29 mph 1012.8mb 84f
1:30  -   -   -  22 29 mph 1012.8mb 84f
1:20  -   -   -  22 31 mph 1012.8mb 84f
1:10  -   -   -  25 31 mph 1012.8mb 84f
1:00  -   -   -  25 31 mph 1012.9mb 84f
12:50 7.5ft 8s 6s 25 29 mph 1012.9mb 84f
12:40 7.5ft  -  6s 25 31 mph 1013mb 84f
12:30  -   -   -  25 31 mph 1013mb 84f
12:20  -   -   -  25 31 mph 1013.3mb 84f
12:10  -   -   -  25 31 mph 1013.4mb 84f
12:00  -   -   -  27 31 mph 1013.5mb 84f
11:50 8ft 8s 6s 25 31 mph 1013.5mb 84f
11:40 8ft  -  6s 22 29 mph 1013.5mb -
11:30  -   -   -  22 29 mph 1013.6mb 84f
11:20  -   -   -  22 29 mph 1013.6mb 84f
11:10  -   -   -  22 29 mph 1013.8mb 84f
11:00  -   -   -  22 29 mph 1013.8mb 84f
10:50 8ft 8s 6s 25 31 mph 1013.9mb 84f
10:40 8ft  -  6s 25 29 mph 1014mb 84f
10:30  -   -   -  22 29 mph 1014.1mb 84f
10:20  -   -   -  22 31 mph 1014.1mb 84f
10:10  -   -   -  22 29 mph 1014.1mb 84f
10:00  -   -   -  25 34 mph 1014mb 84f
9:50 8.5ft 8s 6s 22 29 mph 1014.1mb 84f
9:40  -   -   -  25 29 mph 1014.3mb 84f
9:30  -   -   -  25 29 mph 1014.4mb 84f
9:20  -   -   -  22 29 mph 1014.3mb 84f
9:10  -   -   -  25 29 mph 1014.1mb 84f
9:00  -   -   -  25 31 mph 1014.3mb 84f
8:50 8ft 8s 6s 25 31 mph 1014.3mb 84f
8:40 8ft  -  6s 25 31 mph 1014.1mb 84f
8:30  -   -   -  25 31 mph 1014.3mb 84f
8:20  -   -   -  25 31 mph 1014.4mb 84f
8:10  -   -   -  22 29 mph 1014.3mb 84f
8:00  -   -   -  22 29 mph 1014mb 84f
7:50 9.5ft 8s 6s 22 29 mph 1014mb 84f
7:40  -   -   -  22 29 mph 1014mb 84f
7:30  -   -   -  25 29 mph 1013.9mb 84f
7:20  -   -   -  25 31 mph 1013.9mb 84f
7:10  -   -   -  25 31 mph 1014mb 84f
7:00  -   -   -  25 31 mph 1013.9mb 84f
6:50 9ft 8s 6s 25 29 mph 1013.8mb 84f
6:40  -   -   -  25 29 mph 1013.6mb 84f
6:30  -   -   -  25 31 mph 1013.5mb 84f
6:20  -   -   -  25 29 mph 1013.5mb 84f
6:10  -   -   -  25 29 mph 1013.5mb 84f
6:00  -   -   -  25 31 mph 1013.4mb 84f
5:50 8ft 8s 6s 22 29 mph 1013.3mb 84f
5:40 8ft  -  6s 22 29 mph 1013.3mb 84f
5:30  -   -   -  22 29 mph 1013.1mb 84f
5:20  -   -   -  25 31 mph 1013mb 84f
5:10  -   -   -  25 29 mph 1013mb 84f
5:00  -   -   -  25 31 mph 1013mb 84f
4:50 8ft 8s 6s 25 29 mph 1012.9mb 84f
4:40 8ft  -  6s 25 29 mph 1012.9mb 84f
4:30  -   -   -  22 29 mph 1012.8mb 84f
4:20  -   -   -  25 29 mph 1012.8mb 84f
4:10  -   -   -  25 31 mph 1012.5mb 84f
4:00  -   -   -  27 31 mph 1012.5mb 84f
3:50 9ft 8s 6s 22 31 mph 1012.6mb 84f
3:40 9ft  -  6s 22 27 mph 1012.6mb 84f
3:30  -   -   -  22 29 mph 1012.5mb 84f
3:20  -   -   -  25 31 mph 1012.5mb 84f
3:10  -   -   -  25 29 mph 1012.5mb 84f
3:00  -   -   -  25 29 mph 1012.4mb 84f
2:50 9ft 8s 6s 27 31 mph 1012.5mb 84f
2:40  -   -   -  25 34 mph 1012.5mb 84f
2:30  -   -   -  25 31 mph 1012.5mb 84f
2:20  -   -   -  25 31 mph 1012.5mb 84f
2:10  -   -   -  25 31 mph 1012.5mb 84f
2:00  -   -   -  25 31 mph 1012.8mb 84f
1:50 8ft 8s 6s 25 31 mph 1012.8mb 84f
1:40  -   -   -  25 31 mph 1012.6mb 84f
1:30  -   -   -  27 34 mph 1013mb 84f
1:20  -   -   -  25 31 mph 1013.1mb 84f
1:10  -   -   -  25 31 mph 1013.3mb 84f
1:00  -   -   -  27 31 mph 1013.5mb 84f
12:50 9ft 8s 6s 25 31 mph 1013.5mb 84f
12:40 9ft  -  6s 27 31 mph 1013.8mb 84f
12:30  -   -   -  25 29 mph 1014mb 84f
12:20  -   -   -  25 31 mph 1014mb 84f
12:10  -   -   -  25 31 mph 1014.1mb 84f
12:00  -   -   -  25 31 mph 1014.3mb 84f
mar. 07/18 11:50 9ft 8s 6s 25 31 mph 1014.5mb 84f
11:40  -   -   -  27 34 mph - -
11:30  -   -   -  25 34 mph 1014.5mb 84f
11:20  -   -   -  25 31 mph 1014.5mb 84f
11:10  -   -   -  27 34 mph 1014.5mb 84f
11:00  -   -   -  27 36 mph 1014.6mb 84f
10:50 9ft 8s 6s 29 36 mph 1014.6mb 84f
10:40  -   -   -  27 36 mph 1014.6mb 84f
10:30  -   -   -  27 36 mph 1014.5mb 84f
10:20  -   -   -  27 34 mph 1014.5mb 84f
10:10  -   -   -  25 31 mph 1014.5mb 84f
10:00  -   -   -  25 31 mph 1014.4mb 84f
9:50 8.5ft 8s 6s 27 34 mph 1014.3mb 84f
9:40  -   -   -  27 34 mph 1014.1mb 84f
9:30  -   -   -  25 34 mph 1014.1mb 84f
9:20  -   -   -  27 31 mph 1014mb 84f
9:10  -   -   -  25 34 mph 1013.9mb 84f
9:00  -   -   -  27 34 mph 1013.6mb 84f
8:50 9ft 8s 6s 25 31 mph 1013.5mb 84f
8:40 9ft  -  6s 25 31 mph 1013.5mb 84f
8:30  -   -   -  27 34 mph 1013.4mb 84f
8:20  -   -   -  27 31 mph 1013.4mb 84f
8:10  -   -   -  25 31 mph 1013.3mb 84f
8:00  -   -   -  25 34 mph 1013.3mb 84f
7:50 8ft 8s 6s 27 34 mph 1013mb 84f
7:40  -   -   -  25 31 mph 1013mb 84f
7:30  -   -   -  25 36 mph 1012.9mb 84f
7:20  -   -   -  25 31 mph 1012.8mb 84f
7:10  -   -   -  25 34 mph 1012.6mb 84f
7:00  -   -   -  25 31 mph 1012.5mb 84f
6:50 9ft 8s 6s 25 31 mph 1012.5mb 84f
6:40 9ft  -  6s 25 31 mph 1012.5mb 84f
6:30  -   -   -  25 31 mph 1012.3mb 84f
6:20  -   -   -  25 34 mph 1012.1mb 84f
6:10  -   -   -  25 31 mph 1012.1mb 84f
6:00  -   -   -  25 29 mph 1012.1mb 84f
5:50 8.5ft 8s 6s 25 31 mph 1012mb -
5:40 8.5ft  -  6s 25 31 mph 1012mb 84f
5:30  -   -   -  25 31 mph 1011.9mb 84f
5:20  -   -   -  25 31 mph 1011.8mb 84f
5:10  -   -   -  25 29 mph 1011.9mb 84f
5:00  -   -   -  25 31 mph 1011.9mb 84f
4:50 9ft 8s 6s 25 31 mph 1011.6mb 84f
4:40 9ft  -  6s 25 29 mph 1011.6mb 84f
4:30  -   -   -  25 31 mph 1011.6mb 84f
4:20  -   -   -  25 34 mph 1011.8mb 84f
4:10  -   -   -  25 34 mph 1011.8mb 84f
4:00  -   -   -  25 31 mph 1011.8mb 84f
3:50 8ft 8s 6s 27 34 mph 1011.8mb 84f
3:40 8ft  -  6s 22 31 mph 1011.8mb 84f
3:30  -   -   -  22 27 mph 1012mb 84f
3:20  -   -   -  22 29 mph 1012mb 84f
3:10  -   -   -  25 29 mph 1012mb 84f
3:00  -   -   -  25 29 mph 1012.1mb 84f
2:50 8.5ft 8s 6s 25 31 mph 1012.4mb 84f
2:40 8.5ft  -  6s 27 31 mph 1012.4mb 84f
2:30  -   -   -  25 31 mph 1012.5mb 84f
2:20  -   -   -  25 29 mph 1012.5mb 84f
2:10  -   -   -  22 31 mph 1012.6mb 84f
2:00  -   -   -  25 29 mph 1013mb 84f
1:50 9ft 7s 6s 25 27 mph 1013mb 84f
1:40 9ft  -  6s 22 29 mph 1013mb 84f
1:30  -   -   -  22 27 mph 1013.1mb 84f
1:20  -   -   -  25 29 mph 1013.4mb 84f
1:10  -   -   -  22 29 mph 1013.3mb 84f
1:00  -   -   -  25 29 mph 1013.4mb 84f
12:50 9ft 8s 6s 25 29 mph 1013.4mb 84f
12:40  -   -   -  25 31 mph 1013.5mb 84f
12:30  -   -   -  25 31 mph 1013.8mb 84f
12:20  -   -   -  25 29 mph 1013.6mb 84f
12:10  -   -   -  25 31 mph 1013.6mb 84f
12:00  -   -   -  25 31 mph 1013.8mb 84f
11:50 8.5ft 8s 6s 27 31 mph 1013.8mb 84f
11:40 8.5ft  -  6s 27 31 mph 1013.8mb 84f
11:30  -   -   -  27 31 mph 1013.9mb 84f
11:20  -   -   -  25 29 mph 1014mb 84f
11:10  -   -   -  25 29 mph 1014mb 84f
11:00  -   -   -  25 34 mph 1014.1mb 84f
10:50 8ft 8s 5s 25 31 mph 1014.3mb 84f
10:40  -   -   -  25 34 mph 1014.3mb 84f
10:30  -   -   -  27 31 mph 1014.4mb 84f
10:20  -   -   -  27 34 mph 1014.4mb 84f
10:10  -   -   -  25 34 mph 1014.3mb 84f
10:00  -   -   -  27 34 mph 1014.1mb 84f
9:50 8.5ft 7s 6s 27 34 mph 1014mb 84f
9:40  -   -   -  27 34 mph 1014mb 84f
9:30  -   -   -  27 34 mph 1014mb 83f
9:20  -   -   -  27 34 mph 1014mb 83f
9:10  -   -   -  27 34 mph 1014mb 83f
9:00  -   -   -  25 31 mph 1014mb 83f
8:50 8.5ft 8s 6s 25 31 mph 1014.1mb 83f
8:40  -   -   -  25 31 mph 1014.1mb 83f
8:30  -   -   -  27 34 mph 1014.1mb 83f
8:20  -   -   -  25 31 mph 1014.1mb 83f
8:10  -   -   -  27 34 mph 1014.1mb 83f
8:00  -   -   -  25 31 mph 1014mb 83f
7:50 9ft 7s 6s 25 31 mph 1013.9mb 83f
7:40  -   -   -  27 34 mph 1013.6mb -
7:30  -   -   -  25 31 mph 1013.5mb 83f
7:20  -   -   -  25 31 mph 1013.5mb 83f
7:10  -   -   -  27 34 mph 1013.5mb 83f
7:00  -   -   -  27 31 mph 1013.5mb 83f
6:50 7.5ft 7s 5s 27 36 mph 1013.5mb 83f
6:40  -   -   -  27 34 mph 1013.5mb 83f
6:30  -   -   -  25 31 mph 1013.4mb 83f
6:20  -   -   -  22 31 mph 1013.4mb 83f
6:10  -   -   -  22 34 mph 1013.4mb 83f
6:00  -   -   -  25 38 mph 1013.4mb 83f
5:50 7ft 8s 5s 22 27 mph 1013.1mb 83f
5:40 7ft  -  5s 22 29 mph 1013mb -
5:30  -   -   -  25 31 mph 1013mb 83f
5:20  -   -   -  25 29 mph 1012.9mb 83f
5:10  -   -   -  25 29 mph 1012.9mb 83f
5:00  -   -   -  25 31 mph 1012.8mb 84f
4:50 8ft 8s 5s 25 29 mph 1012.5mb 83f
4:40 8ft  -  5s 25 31 mph 1012.5mb 83f
4:30  -   -   -  25 31 mph 1012.5mb 83f
4:20  -   -   -  25 31 mph 1012.4mb 84f
4:10  -   -   -  27 31 mph 1012.1mb 84f
4:00  -   -   -  25 31 mph 1012.1mb 83f
3:50 7ft 7s 5s 25 31 mph 1012.1mb 83f
3:40 7ft  -  5s 25 31 mph 1012.1mb 84f
3:30  -   -   -  25 31 mph 1012.3mb 84f
3:20  -   -   -  22 29 mph 1012.3mb 84f
3:10  -   -   -  25 29 mph 1012.3mb 84f
3:00  -   -   -  25 31 mph 1012.3mb 84f
2:50 7ft 8s 5s 25 29 mph 1012.1mb 84f
2:40 7ft  -  5s 22 29 mph 1012.1mb 84f
2:30  -   -   -  22 29 mph 1012.1mb 84f
2:20  -   -   -  22 27 mph 1012.3mb 84f
2:10  -   -   -  22 29 mph 1012.4mb 84f
2:00  -   -   -  22 31 mph 1012.3mb 84f
1:50 7ft 7s 5s 25 31 mph 1012.3mb 84f
1:40 7ft  -  5s 22 27 mph 1012.3mb 84f
1:30  -   -   -  22 27 mph 1012.4mb 84f
1:20  -   -   -  22 29 mph 1012.5mb 84f
1:10  -   -   -  22 29 mph 1012.8mb 84f
1:00  -   -   -  25 29 mph 1012.8mb 84f
12:50 6.5ft 8s 5s 22 29 mph 1012.6mb 84f
12:40 6.5ft  -  5s 22 27 mph 1012.9mb 84f
12:30  -   -   -  22 27 mph 1012.9mb 84f
12:20  -   -   -  22 27 mph 1013mb 84f
12:10  -   -   -  20 25 mph 1013.3mb 84f
12:00  -   -   -  20 27 mph 1013.3mb 84f
lun. 07/17 11:50 6.5ft 8s 5s 22 27 mph 1013.5mb 84f
11:40  -   -   -  20 25 mph 1013.5mb 84f
11:30  -   -   -  20 25 mph 1013.5mb 84f
11:20  -   -   -  20 27 mph 1013.8mb 84f
11:10  -   -   -  20 25 mph 1013.9mb 84f
11:00  -   -   -  20 25 mph 1013.9mb 84f
10:50 7ft 7s 5s 22 27 mph 1014mb 84f
10:40 7ft  -  5s 20 25 mph 1014mb 84f
10:30  -   -   -  20 25 mph 1014.1mb 84f
10:20  -   -   -  20 27 mph 1014.1mb 84f
10:10  -   -   -  20 25 mph 1014.1mb 84f
10:00  -   -   -  20 25 mph 1014mb 84f
9:50 6.5ft 7s 5s 22 25 mph 1014mb 84f
9:40 6.5ft  -  5s 20 27 mph 1014mb 84f
9:30  -   -   -  22 27 mph 1013.9mb 84f
9:20  -   -   -  22 27 mph 1013.9mb 84f
9:10  -   -   -  22 27 mph 1013.5mb 84f
9:00  -   -   -  22 29 mph 1013.5mb 84f
8:50 6.5ft 8s 5s 20 27 mph 1013.5mb 84f
8:40  -   -   -  22 27 mph 1013.4mb 84f
8:30  -   -   -  20 25 mph 1013.3mb 84f
8:20  -   -   -  22 27 mph 1013mb 84f
8:10  -   -   -  22 27 mph 1013mb 84f
8:00  -   -   -  22 29 mph 1013mb 84f
7:50 7ft 7s 5s 25 29 mph 1013mb 84f
7:40  -   -   -  22 29 mph 1013mb 84f
7:30  -   -   -  22 29 mph 1013mb 84f
7:20  -   -   -  22 27 mph 1012.9mb 84f
7:10  -   -   -  25 29 mph 1012.8mb 84f
7:00  -   -   -  22 29 mph 1012.8mb 84f
6:50 7ft 7s 5s 22 27 mph 1012.5mb 84f
6:40 7ft  -  5s 22 27 mph 1012.4mb 84f
6:30  -   -   -  22 29 mph 1012.3mb 84f
6:20  -   -   -  22 27 mph 1012.1mb 84f
6:10  -   -   -  20 25 mph 1012mb 84f
6:00  -   -   -  22 27 mph 1012mb 84f
5:50 6ft 8s 5s 22 27 mph 1011.9mb 84f
5:40 6ft  -  5s 22 27 mph 1011.8mb 84f
5:30  -   -   -  22 27 mph 1011.6mb 84f
5:20  -   -   -  22 27 mph 1011.6mb 84f
5:10  -   -   -  22 29 mph 1011.6mb 84f
5:00  -   -   -  22 29 mph 1011.8mb 84f
4:50 6.5ft 7s 5s 22 27 mph 1011.6mb 84f
4:40 6.5ft  -  5s 22 27 mph 1011.8mb 84f
4:30  -   -   -  22 27 mph 1011.8mb 84f
4:20  -   -   -  20 25 mph 1011.8mb 84f
4:10  -   -   -  22 27 mph 1011.8mb 84f
4:00  -   -   -  22 27 mph 1011.8mb 84f
3:50 7ft 7s 5s 22 29 mph 1011.9mb 84f
3:40 7ft  -  5s 20 27 mph 1012mb 84f
3:30  -   -   -  22 25 mph 1012mb 84f
3:20  -   -   -  22 27 mph 1012.1mb 84f
3:10  -   -   -  20 25 mph 1012.1mb 84f
3:00  -   -   -  22 27 mph 1012.3mb 84f
2:50 6ft 8s 5s 22 27 mph 1012.4mb 84f
2:40 6ft  -  5s 22 27 mph 1012.3mb 84f
2:30  -   -   -  22 25 mph 1012.5mb 84f
2:20  -   -   -  20 27 mph 1012.5mb 84f
2:10  -   -   -  22 27 mph 1012.6mb 84f
2:00  -   -   -  22 29 mph 1012.6mb 84f
1:50 6.5ft 7s 5s 20 27 mph 1012.6mb 84f
1:40 6.5ft  -  5s 20 27 mph 1012.9mb -
1:30  -   -   -  20 27 mph 1013mb 84f
1:20  -   -   -  22 27 mph 1013mb 84f
1:10  -   -   -  22 27 mph 1013.1mb 84f
1:00  -   -   -  20 27 mph 1013.3mb 84f
12:50 6.5ft 7s 5s 20 25 mph 1013.4mb 84f
12:40 6.5ft  -  5s 22 27 mph 1013.3mb 84f
12:30  -   -   -  22 27 mph 1013.3mb 84f
12:20  -   -   -  22 27 mph 1013.4mb 84f
12:10  -   -   -  20 27 mph 1013.5mb 84f
12:00  -   -   -  20 27 mph 1013.5mb 84f
11:50 6.5ft 7s 5s 20 27 mph 1013.5mb 84f
11:40 6.5ft  -  5s 22 29 mph 1013.5mb 84f
11:30  -   -   -  22 29 mph 1013.5mb 84f
11:20  -   -   -  20 27 mph 1013.6mb 84f
11:10  -   -   -  22 27 mph 1013.5mb 84f
11:00  -   -   -  22 27 mph 1013.6mb 84f
10:50 6.5ft 7s 5s 22 27 mph 1013.8mb 84f
10:40 6.5ft  -  5s 22 27 mph 1013.8mb 84f
10:30  -   -   -  25 29 mph 1013.6mb 84f
10:20  -   -   -  25 31 mph 1013.5mb 84f
10:10  -   -   -  22 29 mph 1013.5mb 84f
10:00  -   -   -  25 29 mph 1013.5mb 84f
9:50 6.5ft 7s 5s 25 29 mph 1013.5mb 84f
9:40 6.5ft  -  5s 22 27 mph 1013.5mb 84f
9:30  -   -   -  22 29 mph 1013.5mb 84f
9:20  -   -   -  22 29 mph 1013.5mb 84f
9:10  -   -   -  20 25 mph 1013.5mb 84f
9:00  -   -   -  20 27 mph 1013.4mb 84f
8:50 7ft 7s 5s 22 29 mph 1013.4mb 84f
8:40  -   -   -  25 31 mph 1013.3mb 84f
8:30  -   -   -  22 29 mph 1013.1mb 84f
8:20  -   -   -  25 29 mph 1013mb 84f
8:10  -   -   -  25 29 mph 1013mb 84f
8:00  -   -   -  22 27 mph 1012.9mb 84f
7:50 6.5ft 6s 5s 22 27 mph 1012.8mb 84f
7:40  -   -   -  22 29 mph 1012.8mb 84f
7:30  -   -   -  22 27 mph 1012.8mb 84f
7:20  -   -   -  22 29 mph 1012.8mb 84f
7:10  -   -   -  22 25 mph 1012.8mb 84f
7:00  -   -   -  22 27 mph 1012.8mb 84f
6:50 6.5ft 7s 5s 22 29 mph 1012.9mb 84f
6:40 6.5ft  -  5s 22 27 mph 1012.6mb 84f
6:30  -   -   -  22 27 mph 1012.5mb 84f
6:20  -   -   -  22 27 mph 1012.5mb 84f
6:10  -   -   -  22 29 mph 1012.5mb 84f
6:00  -   -   -  22 29 mph 1012.5mb 84f
5:50 6ft 7s 5s 22 29 mph 1012.4mb 84f
5:40  -   -   -  22 29 mph 1012.3mb 84f
5:30  -   -   -  22 27 mph 1012.1mb 84f
5:20  -   -   -  20 25 mph 1012.1mb 84f
5:10  -   -   -  20 25 mph 1012mb 84f
5:00  -   -   -  22 29 mph 1012mb 84f
4:50 6ft 7s 5s 22 27 mph 1011.9mb 84f
4:40 6ft  -  5s 20 25 mph 1012mb -
4:30  -   -   -  20 25 mph 1011.8mb 84f
4:20  -   -   -  20 25 mph 1011.9mb 84f
4:10  -   -   -  20 25 mph 1011.9mb 84f
4:00  -   -   -  22 27 mph 1011.8mb 84f
3:50 5.5ft 7s 5s 20 27 mph 1011.8mb 84f
3:40  -   -   -  20 25 mph 1011.9mb 84f
3:30  -   -   -  22 27 mph 1011.9mb 84f
3:20  -   -   -  22 27 mph 1012mb 84f
3:10  -   -   -  20 25 mph 1012mb 84f
3:00  -   -   -  22 27 mph 1012mb 84f
2:50 6ft 7s 5s 22 27 mph 1012mb 84f
2:40  -   -   -  22 25 mph 1012mb 84f
2:30  -   -   -  22 29 mph 1012mb 84f
2:20  -   -   -  22 27 mph 1012mb 84f
2:10  -   -   -  22 29 mph 1012mb -
2:00  -   -   -  22 27 mph 1012.1mb 84f
1:50 6ft 7s 5s 22 27 mph 1012.4mb 84f
1:40 6ft  -  5s 20 25 mph 1012.5mb 84f
1:30  -   -   -  20 27 mph 1012.5mb 84f
1:20  -   -   -  22 25 mph 1012.6mb 84f
1:10  -   -   -  22 29 mph 1012.8mb 84f
1:00  -   -   -  22 29 mph 1012.9mb 84f
12:50 6ft 7s 5s 25 27 mph 1012.9mb 84f
12:40 6ft  -  5s 22 29 mph 1013mb 84f
12:30  -   -   -  22 25 mph 1013.1mb 84f
12:20  -   -   -  22 27 mph 1013.1mb 84f
12:10  -   -   -  22 27 mph 1013.3mb 84f
12:00  -   -   -  22 27 mph 1013.4mb 84f
dim. 07/16 11:50 6ft 6s 5s 22 25 mph 1013.5mb 84f
11:40  -   -   -  20 25 mph 1013.5mb 84f
11:30  -   -   -  20 25 mph 1013.8mb 84f
11:20  -   -   -  20 25 mph 1013.9mb 84f
11:10  -   -   -  22 27 mph 1013.9mb 84f
11:00  -   -   -  22 27 mph 1013.9mb 84f
10:50 5.5ft 7s 5s 22 27 mph 1014mb 84f
10:40  -   -   -  22 27 mph 1013.9mb 84f
10:30  -   -   -  22 27 mph 1013.9mb 84f
10:20  -   -   -  22 27 mph 1013.8mb 84f
10:10  -   -   -  22 29 mph 1013.9mb 84f
10:00  -   -   -  22 29 mph 1013.9mb 84f
9:50 5.5ft 6s 5s 22 27 mph 1013.6mb 84f
9:40 5.5ft  -  5s 22 29 mph 1013.6mb 84f
9:30  -   -   -  22 27 mph 1013.5mb 84f
9:20  -   -   -  22 27 mph 1013.5mb 84f
9:10  -   -   -  22 27 mph 1013.5mb 84f
9:00  -   -   -  22 27 mph 1013.4mb 84f
8:50 5ft 7s 5s 22 27 mph 1013.3mb 84f
8:40  -   -   -  22 29 mph 1013.1mb 84f
8:30  -   -   -  22 27 mph 1013mb 84f
8:20  -   -   -  22 27 mph 1012.8mb 84f
8:10  -   -   -  22 25 mph 1012.8mb 84f
8:00  -   -   -  22 27 mph 1012.5mb 84f
7:50 5.5ft 6s 5s 22 27 mph 1012.5mb 84f
7:40 5.5ft  -  5s 22 27 mph 1012.4mb 84f
7:30  -   -   -  20 25 mph 1012.3mb 84f
7:20  -   -   -  20 25 mph 1012.1mb 84f
7:10  -   -   -  20 25 mph 1012mb 84f
7:00  -   -   -  20 22 mph 1011.9mb 84f
6:50 5ft 7s 5s 20 25 mph 1011.6mb 84f
6:40 5ft  -  5s 20 25 mph 1011.5mb 84f
6:30  -   -   -  20 25 mph 1011.3mb 84f
6:20  -   -   -  20 22 mph 1011.1mb 84f
6:10  -   -   -  20 25 mph 1011.1mb 84f
6:00  -   -   -  18 22 mph 1011mb 84f
5:50 5ft 8s 5s 20 25 mph 1011mb 84f
5:40 5ft  -  5s 20 22 mph 1011mb 84f
5:30  -   -   -  20 25 mph 1011mb 84f
5:20  -   -   -  20 25 mph 1011mb 84f
5:10  -   -   -  20 25 mph 1011mb 84f
5:00  -   -   -  20 25 mph 1011mb 84f
4:50 5ft 7s 5s 20 25 mph 1011mb 84f
4:40 5ft  -  5s 18 22 mph 1010.9mb 84f